Location: Eppenbrunn
(49.1158°N, 7.5601°E)
Time: 17:35:32
(UTC+00:00)

Meteor 2-10 Rocket - Pass Details

Date: 09 April 2020
Orbit: 734 x 884 km, 81.2° (Epoch: 23 May)

Event Time Altitude Azimuth Distance (km) Brightness Sun altitude
Exits shadow 20:33:52 45° 126° (SE) 1,066 3.7 -21.0°
Maximum altitude 20:34:46 50° 94° (E) 1,003 3.7 -21.1°
Drops below altitude 10° 20:40:02 10° 21° (NNE) 2,426 6.4 -21.8°
Sets 20:42:33 0° 16° (NNE) 3,388 7.2 -22.1°
